Regional Weather Roundup
Issued by NWS

Home | Current Version | Previous Version | Text Only | Print | Product List | Glossary Off
Versions: 1 2 3 4 5 6 7 8 9 10 11 12 13 14 15 16 17 18 19 20 21 22 23 24 25 26 27 28 29 30 31 32 33 34 35 36 37 38 39 40 41 42 43 44 45 46 47 48 49 50

000
ASUS45 KABQ 202310
RWRNM
NEW MEXICO REGIONAL WEATHER ROUNDUP
NATIONAL WEATHER SERVICE ALBUQUERQUE NM
400 PM MST TUE FEB 20 2018

NOTE: "FAIR" MEANS FEW OR NO CLOUDS BELOW 12,000 FEET AGL WITH NO
       SIGNIFICANT WEATHER OR OBSTRUCTIONS TO VISION.

      THIS PRODUCT IS RELEASED AS TWO VERSIONS.  ONE VERSION NEAR
      THE TOP OF THE HOUR CONTAINING PRELIMINARY DATA FROM ALBUQUERQUE
      AND OTHER STATIONS.  A FINAL VERSION WITH ADDITIONAL DATA IS
      ISSUED ABOUT 10 MINUTES AFTER THE HOUR.

NMZ501-503-504-510>518-210000-
NORTHWEST PLATEAU/NORTHCENTRAL MOUNTAINS

CITY           SKY/WX    TMP DP  RH WIND       PRES   REMARKS
FARMINGTON     CLOUDY    35   6  29 W13       29.99R WCI  26
LOS ALAMOS     CLOUDY    33  11  40 W9        29.95R WCI  25
SANTA FE       CLOUDY    35  14  42 SW15      29.95R WCI  25
TAOS           FAIR      30  13  49 W15G22    29.97R WCI  19
ANGEL FIRE     FLURRIES  21  12  69 W13       29.93R WCI   9

$$
NMZ402-403-502-505>509-210000-
WESTCENTRAL MOUNTAINS/SOUTHWEST MOUNTAINS

CITY           SKY/WX    TMP DP  RH WIND       PRES   REMARKS
GALLUP         FAIR      30  14  51 SW12      29.98R WCI  20
GRANTS         CLOUDY    34  14  44 W13G30    30.00R WCI  25
SILVER CITY    CLOUDY    43  32  63 NW16      29.98S

$$
NMZ407-409-411-412-210000-
SOUTHERN DESERTS

CITY           SKY/WX    TMP DP  RH WIND       PRES   REMARKS
DEMING         FAIR      55  34  45 W18       29.95R
LAS CRUCES     FAIR      57  34  41 W16       29.95S
HOLLOMAN AFB   FAIR      58  33  40 SW7       29.97R
ALAMOGORDO     PTSUNNY   55  32  41 W6        29.96R
T OR C         PTSUNNY   54  25  32 SW20G28   29.91S

$$
NMZ519>523-210000-
CENTRAL VALLEYS/CENTRAL HIGHLANDS

CITY           SKY/WX    TMP DP  RH WIND       PRES   REMARKS
ALBUQUERQUE    PTSUNNY   41  18  39 W9        29.97R
DOUBLE EAGLE   CLOUDY    39  18  41 W20       29.97R WCI  30
MORIARTY ARPT  CLOUDY    36  22  55 NW8       29.98R WCI  30
CLINES CORNERS FLURRIES  30  18  60 W16       29.95R WCI  19
BELEN          CLOUDY    39  19  45 CALM      29.99R
SOCORRO        PTSUNNY   44  24  45 N10       29.96S

$$
NMZ524>526-539-540-210000-
SOUTHCENTRAL MOUNTAINS

CITY           SKY/WX    TMP DP  RH WIND       PRES   REMARKS
RUIDOSO        NOT AVBL

$$
NMZ527>531-210000-
NORTHEAST HIGHLANDS/NORTHEAST PLAINS

CITY           SKY/WX    TMP DP  RH WIND       PRES   REMARKS
LAS VEGAS      CLOUDY    35  14  42 SW23      29.91R WCI  23
RATON          FAIR      40   4  22 W29G39    29.86R WCI  29
CLAYTON        CLOUDY    32   9  38 E18G24    29.96R WCI  20

$$
NMZ532>537-210000-
EASTCENTRAL PLAINS

CITY           SKY/WX    TMP DP  RH WIND       PRES   REMARKS
SANTA ROSA     FAIR      48  21  34 W18G30    29.91S
TUCUMCARI      PTSUNNY   53  21  28 E3        29.90R
CANNON AFB     FAIR      60  26  28 CALM      29.91R
CLOVIS AIRPORT NOT AVBL

$$
NMZ028-029-538-210000-
SOUTHEAST PLAINS

CITY           SKY/WX    TMP DP  RH WIND       PRES   REMARKS
ROSWELL        FAIR      68  23  18 W18       29.85R
ARTESIA        FAIR      68  28  22 SW17G30   29.89R
CARLSBAD       FAIR      69  28  21 W15G24    29.87R
HOBBS          SUNNY     68  27  21 W12G18    29.89R


$$



USA.gov is the U.S. government's official web portal to all federal, state and local government web resources and services.